Date String (YYYY-MM-DD hh:mm:ss) UTC,Instrument flags,Ambient pressure (hPa),Sample flow (lpm),Bypass flow (lpm),Sample temperature (°C),Ambient temperature (°C),ASC tube jacket temperature (°C),LED temperature (°C),Box temperature (°C),Sample RH (%),Span deviation,Mass concentration (μg/m³),Mass concentration (μg/m³),Mass concentration (μg/m³)
DateTimeUTC,F1_M11,P_M11,Q1_M11,Q2_M11,T1_M11,T2_M11,T3_M11,T4_M11,T5_M11,U1_M11,ZSPAN_M11,X2_M11,X0_M11,X1_M11
2022-02-27 08:00:00,,0831.7,5.01,0.00,21.8,21.2,00.0,30.9,23.4,06.7,0003.4,0008.66,0015.23,0008.05
2022-02-27 08:01:00,,0831.7,5.00,0.00,21.8,21.1,00.0,30.9,23.3,06.8,0003.5,0008.79,0015.45,0008.15
2022-02-27 08:02:00,,0831.7,4.99,0.00,21.7,21.0,00.0,30.9,23.3,06.8,0003.7,0008.91,0015.51,0008.24
2022-02-27 08:03:00,,0831.7,5.01,0.00,21.7,21.2,00.0,30.8,23.3,06.9,0003.8,0009.12,0015.76,0008.39
2022-02-27 08:04:00,,0831.7,5.00,0.00,21.8,22.0,00.0,30.9,23.5,06.9,0003.6,0009.36,0016.63,0008.59
2022-02-27 08:05:00,,0831.7,5.02,0.00,21.9,22.8,00.0,30.9,23.8,06.9,0003.8,0009.60,0017.00,0008.80
2022-02-27 08:06:00,,0831.7,4.98,0.00,22.1,22.9,00.0,30.9,24.0,06.9,0003.8,0009.86,0017.36,0009.02
2022-02-27 08:07:00,,0831.8,5.00,0.00,22.1,22.5,00.0,30.9,23.9,07.0,0003.6,0010.16,0017.13,0009.29
2022-02-27 08:08:00,,0831.7,4.99,0.00,22.0,22.2,00.0,31.0,23.8,07.0,0003.6,0010.40,0016.72,0009.51
2022-02-27 08:09:00,,0831.7,5.01,0.00,22.0,21.9,00.0,31.0,23.7,06.9,0003.4,0010.56,0016.83,0009.67
2022-02-27 08:10:00,,0831.7,4.99,0.00,22.0,21.7,00.0,31.0,23.6,06.9,0004.3,0010.73,0017.20,0009.83
2022-02-27 08:11:00,,0831.7,5.01,0.00,21.9,21.6,00.0,31.0,23.6,06.9,0004.3,0010.82,0016.97,0009.92
2022-02-27 08:12:00,,0831.7,5.01,0.00,21.9,21.4,00.0,30.9,23.5,06.9,0003.9,0010.86,0017.12,0009.98
2022-02-27 08:13:00,,0831.7,4.98,0.00,21.8,21.3,00.0,30.9,23.5,06.9,0003.7,0010.88,0017.09,0010.02
2022-02-27 08:14:00,,0831.6,5.00,0.00,21.8,21.2,00.0,30.9,23.4,06.8,0003.4,0010.84,0016.57,0010.01
2022-02-27 08:15:00,,0831.7,5.00,0.00,21.8,21.1,00.0,30.9,23.4,06.9,0003.9,0010.86,0015.83,0010.04
2022-02-27 08:16:00,,0831.7,4.99,0.00,21.7,21.1,00.0,30.9,23.3,06.9,0003.9,0010.74,0015.58,0009.98
2022-02-27 08:17:00,,0831.7,5.01,0.00,21.8,21.7,00.0,30.9,23.5,06.8,0004.0,0010.62,0015.82,0009.86
2022-02-27 08:18:00,,0831.7,5.01,0.00,21.9,22.6,00.0,30.9,23.8,06.8,0004.0,0010.50,0016.11,0009.75
2022-02-27 08:19:00,,0831.7,4.99,0.00,22.1,22.9,00.0,31.0,24.0,06.8,0004.1,0010.42,0016.51,0009.67
2022-02-27 08:20:00,,0831.7,5.00,0.00,22.1,22.7,00.0,31.0,24.0,06.7,0004.0,0010.36,0016.60,0009.60
2022-02-27 08:21:00,,0831.7,5.00,0.00,22.1,22.4,00.0,31.0,24.0,06.7,0003.4,0010.28,0016.03,0009.55
2022-02-27 08:22:00,,0831.7,5.00,0.00,22.1,22.2,00.0,31.0,23.9,06.8,0003.2,0010.28,0016.01,0009.54
2022-02-27 08:23:00,,0831.7,5.00,0.00,22.1,22.0,00.0,31.0,23.9,06.8,0003.5,0010.32,0016.59,0009.56
2022-02-27 08:24:00,,0831.7,4.99,0.00,22.1,21.8,00.0,31.0,23.8,06.8,0003.4,0010.36,0016.65,0009.59
2022-02-27 08:25:00,,0831.7,5.01,0.00,22.0,21.7,00.0,31.0,23.7,06.8,0003.7,0010.42,0016.93,0009.64
2022-02-27 08:26:00,,0831.7,5.00,0.00,22.0,21.5,00.0,31.0,23.7,06.7,0003.4,0010.42,0017.92,0009.63
2022-02-27 08:27:00,,0831.6,5.01,0.00,22.0,21.4,00.0,31.0,23.7,06.8,0003.0,0010.47,0018.08,0009.66
2022-02-27 08:28:00,,0831.7,4.99,0.00,21.9,21.3,00.0,31.0,23.6,06.7,0003.1,0010.50,0017.84,0009.69
2022-02-27 08:29:00,,0831.7,5.00,0.00,21.9,21.2,00.0,31.0,23.5,06.8,0003.2,0010.45,0017.19,0009.69
2022-02-27 08:30:00,,0831.7,5.00,0.00,21.9,21.2,00.0,31.0,23.5,06.8,0003.0,0010.43,0017.22,0009.69
2022-02-27 08:31:00,,0831.7,5.00,0.00,21.9,21.5,00.0,31.0,23.5,06.8,0002.9,0010.45,0017.46,0009.72
2022-02-27 08:32:00,,0831.7,5.00,0.00,22.0,22.3,00.0,31.0,23.8,06.8,0003.1,0010.44,0017.78,0009.73
2022-02-27 08:33:00,,0831.7,5.01,0.00,22.1,23.0,00.0,31.0,24.0,06.8,0003.1,0010.42,0017.65,0009.73
2022-02-27 08:34:00,,0831.7,4.98,0.00,22.2,22.9,00.0,31.1,24.1,06.8,0002.5,0010.40,0017.07,0009.73
2022-02-27 08:35:00,,0831.6,5.00,0.00,22.2,22.5,00.0,31.1,24.0,06.8,0002.4,0010.39,0017.12,0009.73
2022-02-27 08:36:00,,0831.7,5.01,0.00,22.2,22.3,00.0,31.1,23.9,06.8,0002.6,0010.43,0017.13,0009.76
2022-02-27 08:37:00,,0831.7,4.99,0.00,22.1,22.0,00.0,31.1,23.9,06.9,0002.6,0010.54,0016.37,0009.85
2022-02-27 08:38:00,,0831.7,5.01,0.00,22.1,21.9,00.0,31.1,23.8,06.9,0003.0,0010.58,0016.29,0009.90
2022-02-27 08:39:00,,0831.7,5.01,0.00,22.1,21.7,00.0,31.1,23.8,06.8,0003.2,0010.56,0016.13,0009.90
2022-02-27 08:40:00,,0831.7,4.99,0.00,22.1,21.6,00.0,31.1,23.7,06.8,0003.5,0010.63,0016.40,0009.93
2022-02-27 08:41:00,,0831.6,5.01,0.00,22.0,21.5,00.0,31.1,23.7,06.7,0003.6,0010.62,0016.16,0009.90
2022-02-27 08:42:00,,0831.6,4.99,0.00,22.0,21.4,00.0,31.1,23.7,06.7,0003.8,0010.53,0016.05,0009.81
2022-02-27 08:43:00,,0831.7,5.00,0.00,22.0,21.3,00.0,31.0,23.6,06.7,0003.7,0010.59,0015.99,0009.81
2022-02-27 08:44:00,,0831.7,5.00,0.00,21.9,21.3,00.0,31.0,23.6,06.9,0003.9,0010.62,0016.00,0009.81
2022-02-27 08:45:00,,0831.7,5.00,0.00,21.9,21.3,00.0,31.0,23.6,06.9,0004.7,0010.69,0016.79,0009.82
2022-02-27 08:46:00,,0831.7,5.01,0.00,22.0,21.7,00.0,31.0,23.7,07.0,0004.9,0010.75,0017.12,0009.85
2022-02-27 08:47:00,,0831.7,5.00,0.00,22.1,22.4,00.0,31.1,23.9,07.0,0004.9,0010.78,0017.60,0009.90
2022-02-27 08:48:00,,0831.8,5.00,0.00,22.2,23.0,00.0,31.1,24.2,06.8,0004.6,0010.70,0017.45,0009.86
2022-02-27 08:49:00,,0831.8,4.98,0.00,22.3,22.9,00.0,31.1,24.2,06.8,0005.0,0010.62,0017.35,0009.79
2022-02-27 08:50:00,,0831.7,5.00,0.00,22.3,22.6,00.0,31.1,24.2,06.8,0005.3,0010.66,0017.43,0009.83
2022-02-27 08:51:00,,0831.7,5.01,0.00,22.3,22.4,00.0,31.2,24.1,06.8,0005.2,0010.71,0017.53,0009.90
2022-02-27 08:52:00,,0831.7,4.99,0.00,22.3,22.2,00.0,31.2,24.0,07.0,0004.7,0010.86,0017.74,0010.04
2022-02-27 08:53:00,,0831.7,5.01,0.00,22.3,22.0,00.0,31.2,24.0,07.1,0004.7,0011.14,0017.90,0010.25
2022-02-27 08:54:00,,0831.7,5.00,0.00,22.2,21.9,00.0,31.2,24.0,07.1,0004.4,0011.31,0017.77,0010.43
2022-02-27 08:55:00,,0831.7,5.00,0.00,22.2,21.7,00.0,31.2,23.9,07.1,0003.7,0011.50,0018.23,0010.58
2022-02-27 08:56:00,,0831.7,5.00,0.00,22.2,21.7,00.0,31.2,23.9,07.1,0003.3,0011.65,0017.71,0010.72
2022-02-27 08:57:00,,0831.7,5.01,0.00,22.2,21.6,00.0,31.2,23.8,07.2,0003.4,0011.82,0017.79,0010.86
2022-02-27 08:58:00,,0831.7,5.00,0.00,22.1,21.5,00.0,31.2,23.8,07.2,0003.3,0011.95,0017.68,0010.97
2022-02-27 08:59:00,,0831.7,5.00,0.00,22.1,21.4,00.0,31.1,23.8,07.2,0004.0,0012.17,0018.41,0011.16
